Wind_Speed
68 70 71 71 69 70 71 72 74 75 73 70 71 66 68 65 64 59 60 61 61 60 64 65 66 70 70 71 69 66 66 66 64 63 61 58 62 59 62 59 58 61 61 57 52
58 63 65 68 72 73 74 73 72 74 71 73 71 67 67 72 70 69 67 69 67 69 71 72 66 68 68 70 71 69 69 71 67 64 64 60 60 63 63 59 62 61 57 59 59
47 58 59 63 64 68 69 68 74 76 78 79 82 82 79 86 80 79 78 79 81 81 80 71 65 66 65 67 67 69 69 69 71 64 66 68 63 60 64 63 63 63 62 61 61
42 44 47 49 51 53 56 56 58 62 65 68 71 72 78 79 88 93 89 90 84 83 75 69 66 63 65 63 63 66 68 68 70 68 67 68 69 67 64 66 69 65 64 67 65
46 48 51 52 53 54 57 59 60 61 64 66 68 70 72 72 73 71 71 74 72 69 69 68 68 65 66 64 64 61 64 67 63 66 68 69 70 68 68 67 66 65 68 66 64
40 40 40 41 41 44 46 50 54 59 63 67 71 74 76 74 77 76 68 70 71 71 70 69 68 68 69 67 65 61 63 67 67 66 66 67 68 69 71 68 66 66 68 72 69
39 39 40 39 41 43 45 46 46 50 55 59 65 71 75 76 81 82 76 72 71 71 73 71 73 70 71 70 67 62 60 62 66 63 63 60 63 62 58 64 69 68 68 70 69
44 44 45 46 46 48 49 49 48 50 53 60 64 67 71 73 75 79 77 78 77 74 72 74 75 72 70 70 70 64 61 61 59 60 60 63 62 63 62 61 66 71 72 71 69
48 47 47 48 50 51 53 52 54 54 58 62 66 68 67 64 67 71 71 78 78 80 76 75 72 68 69 68 69 68 59 59 60 59 59 58 56 59 62 64 64 65 65 67 68
51 51 49 48 48 49 54 55 57 56 63 62 64 67 69 66 61 61 63 72 75 82 84 77 70 69 67 65 63 59 63 60 61 63 62 59 61 61 60 59 62 64 65 67 66
48 50 49 50 51 51 54 54 56 58 61 59 55 55 52 53 56 54 59 64 68 77 83 81 74 66 62 61 67 63 61 66 67 66 67 66 63 61 65 64 67 65 66 65 65
42 43 47 50 50 52 53 54 55 58 60 55 49 47 43 42 45 45 52 60 67 72 81 81 72 69 69 63 68 69 68 64 65 66 64 64 66 67 65 64 63 65 65 62 61
48 48 42 39 46 49 51 51 52 54 52 51 45 38 32 31 32 35 44 57 66 70 72 75 78 77 73 71 70 71 68 64 64 65 66 65 65 66 64 65 67 70 66 62 63
52 49 46 39 36 38 44 47 49 50 48 45 39 36 29 23 24 29 36 50 62 71 71 72 80 80 75 74 72 72 70 66 66 67 66 68 65 65 64 64 66 67 63 60 58
55 56 50 44 35 36 40 42 43 45 46 42 37 33 29 20 17 21 30 43 57 68 70 71 73 78 78 75 75 73 70 68 70 70 70 67 64 67 64 65 68 67 64 65 65
59 56 52 50 34 34 38 38 39 44 46 42 37 31 23 15 11 13 22 34 48 60 68 69 73 73 77 77 73 73 71 71 73 73 69 68 69 65 65 67 67 68 67 66 66
63 61 54 48 39 32 36 37 39 45 44 40 38 30 18 13 5 6 15 26 38 50 64 70 71 72 73 77 77 77 74 76 76 73 65 70 67 65 68 70 70 70 68 68 70
63 63 59 50 45 35 36 36 37 44 42 39 36 26 18 11 5 5 12 18 31 43 56 67 70 72 75 75 75 77 78 79 77 73 75 72 65 65 65 67 69 69 70 72 75
61 63 62 56 44 38 33 34 35 40 40 35 28 20 17 13 8 1 8 13 24 38 49 67 78 77 75 75 75 74 77 79 77 76 73 71 70 66 68 70 71 71 72 76 79
62 60 62 59 47 42 32 31 32 37 37 33 26 16 13 16 12 6 9 10 16 29 41 56 71 73 71 71 71 71 74 76 77 75 73 70 68 67 67 68 68 69 71 72 74
61 60 62 63 52 43 31 30 29 32 33 32 22 15 13 19 16 9 14 11 12 21 31 41 55 65 68 69 67 67 67 70 73 73 72 69 66 66 65 65 68 70 71 71 70
57 61 62 60 56 43 35 28 28 29 29 28 23 16 10 10 12 14 12 16 13 14 19 25 36 50 62 67 68 66 65 66 66 67 68 65 62 63 63 65 67 69 70 71 73
61 56 62 61 58 51 38 28 26 24 30 23 22 17 9 5 8 5 8 13 12 12 16 17 23 32 43 56 64 68 66 65 64 63 62 62 61 62 63 65 66 68 70 72 75
60 59 60 62 58 53 40 30 22 25 24 23 18 19 10 3 4 9 10 13 14 8 12 12 12 16 25 36 47 55 61 64 65 63 61 60 62 63 65 66 68 71 73 74 72
62 62 63 62 62 55 45 30 26 22 26 23 17 17 12 1 7 10 8 7 11 12 11 12 12 10 10 16 23 30 40 49 55 58 59 61 62 62 62 61 62 63 61 60 61
65 67 65 67 62 58 46 32 28 21 28 21 20 14 13 6 8 13 10 9 9 7 9 10 12 12 12 14 15 17 20 24 27 31 34 36 39 41 43 44 46 50 53 59 63
63 65 66 66 63 60 49 36 29 27 25 25 19 11 14 12 10 10 12 12 13 16 15 15 12 14 14 14 15 15 15 16 18 20 21 23 26 31 36 41 45 49 54 61 65
Wind_Direction
261 261 263 263 265 265 265 265 264 266 266 266 262 264 263 261 260 255 258 257 257 260 259 266 260 250 246 246 245 242 243 242 240 239 235 241 239 240 242 244 244 246 247 247 248
258 257 257 259 258 257 258 258 261 259 259 258 253 258 258 258 262 257 254 257 255 263 262 267 257 247 244 244 243 242 240 243 242 240 238 235 245 243 241 243 244 247 248 249 249
263 266 266 266 268 268 266 261 262 263 260 261 259 261 258 260 258 257 254 257 261 263 263 260 250 244 242 243 240 238 237 239 240 240 238 239 238 245 244 245 246 245 249 252 253
271 272 272 272 269 266 267 265 265 265 265 263 262 263 263 259 259 255 257 263 260 258 256 251 247 242 239 241 241 238 236 237 239 239 239 240 243 241 245 246 246 247 250 251 254
275 275 276 276 274 272 272 272 271 270 267 265 264 263 262 258 257 256 253 254 252 251 249 245 243 239 237 238 241 240 237 235 237 237 241 239 240 244 246 249 250 249 251 254 254
275 276 277 277 276 276 275 275 273 270 268 267 265 262 259 258 256 255 250 250 249 246 245 243 241 238 235 235 240 239 236 235 233 236 239 242 243 245 244 248 250 251 254 255 254
278 276 276 276 276 277 276 278 280 276 273 272 270 265 261 256 254 252 249 248 249 244 242 240 238 239 234 234 234 237 237 236 236 235 239 243 244 245 249 251 251 251 254 256 257
279 280 281 280 277 278 278 279 278 280 280 278 274 270 265 261 256 251 248 244 243 241 238 238 237 236 235 232 230 231 235 237 238 237 237 241 243 244 244 247 252 253 254 255 257
282 283 283 282 283 284 285 286 283 283 283 285 279 276 273 268 261 255 248 243 237 238 236 235 235 234 232 231 231 230 233 236 238 239 237 238 241 244 247 250 251 252 255 259 261
287 284 281 278 282 285 285 288 289 289 289 287 283 280 279 274 263 254 246 243 237 233 234 233 232 232 232 231 230 231 230 233 236 237 238 236 236 240 243 246 251 254 257 256 257
294 283 285 286 282 284 287 290 295 295 294 294 292 286 278 270 263 253 241 237 235 232 233 233 232 233 231 232 227 228 230 228 231 234 236 240 241 240 243 248 250 252 257 261 264
329 312 295 281 282 285 291 296 301 304 306 307 306 298 285 271 262 252 235 229 228 229 229 231 229 231 229 231 227 228 230 233 234 237 239 241 242 243 243 246 251 254 255 259 262
339 339 325 296 282 284 290 299 303 306 312 315 313 304 295 279 263 244 228 224 222 224 225 226 226 227 227 228 227 227 230 233 235 237 239 241 243 245 246 249 251 252 255 258 260
345 342 345 319 295 290 295 303 307 314 322 326 326 323 313 292 261 244 224 219 217 218 219 219 224 225 225 225 226 228 231 235 238 237 240 241 243 247 248 250 253 255 256 257 257
351 346 345 335 309 298 301 308 314 327 332 331 334 331 324 301 267 239 222 215 215 216 214 216 220 222 224 225 226 228 232 236 238 238 239 240 243 249 250 252 255 257 257 259 258
351 350 344 345 317 305 308 318 324 338 338 338 338 336 326 309 274 242 217 214 212 213 212 213 216 219 222 226 226 227 229 233 235 238 240 241 242 247 250 253 256 258 260 261 263
347 347 348 345 331 306 312 324 333 344 342 341 339 339 341 333 284 233 208 208 208 209 209 210 215 218 221 223 225 229 229 233 236 239 241 243 245 246 252 255 257 260 263 265 266
348 347 347 347 342 319 315 324 335 343 343 343 338 342 350 5 360 193 201 192 201 202 208 209 215 216 220 222 223 227 231 234 236 238 239 242 245 247 252 258 260 263 266 269 270
343 342 345 345 341 331 313 322 336 343 342 346 340 347 1 16 45 106 179 184 198 198 201 206 213 214 218 222 225 228 233 235 237 240 244 246 248 251 253 257 261 264 267 270 271
344 339 339 347 341 336 314 319 332 340 342 348 342 356 22 36 42 81 143 154 187 200 205 211 213 215 218 224 226 228 232 235 239 241 243 246 248 252 255 258 261 264 267 271 273
340 339 341 342 341 335 316 313 324 336 342 342 338 341 28 43 38 69 102 116 165 192 204 209 216 219 220 223 228 230 233 237 240 243 246 249 251 254 257 260 264 267 270 273 275
336 336 336 339 340 336 321 306 319 331 337 333 333 331 2 53 34 28 106 110 130 168 186 207 216 220 222 225 228 232 234 238 240 243 246 249 253 257 260 262 265 269 273 274 276
340 331 336 335 339 335 328 304 311 323 328 331 321 319 328 6 97 76 108 129 123 151 169 188 205 216 222 225 229 232 235 238 242 245 248 251 253 255 259 263 267 269 272 275 278
334 336 333 335 335 334 327 305 298 311 319 318 313 306 295 252 143 110 89 112 115 144 150 149 168 199 216 226 230 235 239 242 245 248 250 253 255 258 262 266 269 271 274 277 280
328 333 334 332 332 332 328 311 284 300 303 312 307 298 291 201 258 146 155 122 116 122 146 157 159 170 192 209 220 230 238 243 246 250 252 255 257 261 264 267 269 273 275 278 280
323 326 330 333 330 329 326 315 275 283 291 304 295 280 265 218 167 195 172 211 211 177 172 166 164 177 194 200 207 214 223 232 239 244 247 249 254 257 260 264 267 272 278 280 283
323 325 325 325 329 329 324 313 281 267 277 291 286 265 257 230 206 200 196 209 202 211 214 204 200 183 193 198 204 209 214 223 231 238 245 250 257 263 267 272 277 281 284 286 289
Height
10779 10780 10780 10780 10780 10780 10781 10781 10781 10781 10782 10783 10785 10787 10789 10791 10793 10796 10798 10801 10804 10808 10811 10813 10815 10821 10829 10834 10838 10843 10847 10847 10853 10862 10869 10874 10876 10878 10881 10886 10888 10888 10890 10895 10899
10765 10765 10765 10765 10766 10765 10766 10765 10765 10766 10767 10770 10770 10770 10772 10773 10774 10780 10779 10783 10787 10793 10794 10800 10801 10808 10813 10818 10825 10831 10836 10833 10843 10853 10858 10865 10863 10868 10874 10876 10878 10880 10880 10884 10889
10752 10753 10752 10750 10750 10750 10750 10748 10748 10748 10750 10751 10752 10753 10756 10757 10757 10761 10761 10766 10773 10777 10778 10783 10789 10795 10799 10803 10812 10818 10821 10819 10830 10842 10846 10848 10853 10856 10863 10866 10868 10871 10874 10875 10878
10743 10742 10741 10739 10737 10736 10736 10733 10732 10731 10731 10731 10731 10731 10734 10736 10733 10734 10741 10747 10750 10758 10762 10765 10774 10781 10786 10791 10796 10803 10805 10810 10817 10829 10833 10837 10841 10846 10850 10854 10857 10861 10863 10866 10868
10734 10732 10730 10728 10726 10724 10722 10719 10717 10715 10714 10713 10713 10713 10712 10715 10710 10721 10723 10725 10732 10740 10744 10749 10756 10765 10772 10777 10781 10791 10794 10799 10807 10816 10818 10824 10828 10832 10839 10841 10846 10851 10853 10855 10857
10724 10721 10718 10715 10712 10709 10706 10704 10702 10699 10697 10695 10694 10692 10691 10695 10693 10695 10707 10706 10713 10721 10726 10734 10742 10747 10754 10763 10770 10779 10782 10787 10796 10803 10808 10813 10817 10820 10827 10830 10837 10840 10839 10838 10842
10716 10713 10709 10706 10703 10699 10695 10693 10690 10686 10681 10677 10673 10668 10665 10670 10668 10672 10684 10691 10695 10703 10709 10717 10721 10732 10740 10749 10758 10769 10774 10779 10785 10795 10799 10802 10805 10808 10815 10818 10819 10822 10825 10828 10833
10707 10705 10703 10699 10694 10690 10686 10682 10678 10673 10666 10660 10653 10648 10643 10643 10645 10650 10659 10669 10675 10680 10689 10696 10702 10715 10728 10736 10744 10756 10764 10771 10778 10784 10789 10790 10795 10800 10803 10805 10808 10811 10814 10816 10821
10698 10695 10693 10689 10684 10680 10675 10671 10665 10660 10650 10643 10633 10626 10621 10621 10622 10626 10638 10641 10653 10661 10669 10674 10689 10704 10712 10726 10734 10745 10758 10763 10769 10773 10778 10781 10786 10789 10792 10794 10797 10801 10802 10804 10809
10687 10685 10681 10678 10673 10668 10662 10657 10650 10647 10634 10625 10614 10606 10597 10594 10598 10603 10613 10617 10633 10640 10647 10661 10677 10690 10703 10716 10731 10738 10746 10752 10757 10762 10764 10769 10775 10779 10782 10782 10785 10787 10788 10792 10796
10674 10671 10669 10666 10662 10656 10650 10645 10636 10626 10619 10607 10595 10584 10577 10572 10571 10578 10588 10598 10610 10623 10633 10647 10665 10682 10697 10706 10715 10722 10730 10736 10740 10746 10752 10758 10765 10768 10770 10774 10775 10776 10777 10781 10786
10666 10661 10656 10653 10649 10645 10640 10634 10625 10615 10601 10588 10576 10565 10559 10555 10552 10557 10565 10577 10590 10602 10612 10631 10658 10671 10680 10691 10700 10708 10716 10726 10733 10739 10744 10749 10751 10754 10760 10763 10765 10765 10766 10773 10775
10658 10651 10645 10639 10636 10633 10629 10625 10616 10604 10591 10575 10562 10552 10545 10540 10538 10541 10548 10559 10570 10584 10601 10624 10646 10650 10664 10676 10686 10695 10707 10716 10724 10728 10732 10737 10741 10745 10751 10752 10753 10750 10757 10764 10763
10651 10643 10638 10630 10626 10622 10619 10615 10606 10594 10579 10565 10554 10543 10535 10530 10528 10529 10537 10545 10556 10570 10587 10608 10618 10638 10653 10663 10675 10688 10698 10705 10712 10718 10723 10725 10732 10734 10741 10743 10738 10738 10748 10753 10753
10644 10637 10631 10624 10618 10614 10610 10606 10598 10585 10574 10561 10549 10537 10529 10524 10522 10522 10527 10536 10544 10558 10578 10595 10610 10626 10641 10654 10664 10677 10688 10695 10698 10704 10708 10717 10724 10723 10730 10730 10726 10729 10737 10740 10741
10641 10633 10625 10619 10611 10608 10604 10599 10590 10581 10568 10555 10545 10536 10527 10522 10519 10520 10524 10530 10539 10551 10568 10587 10599 10614 10630 10643 10658 10663 10673 10678 10682 10688 10699 10706 10711 10719 10718 10716 10716 10718 10724 10726 10727
10637 10630 10622 10617 10608 10603 10598 10594 10585 10575 10566 10555 10545 10536 10528 10522 10519 10520 10523 10528 10536 10550 10563 10577 10591 10606 10618 10631 10643 10648 10661 10664 10669 10681 10696 10691 10702 10710 10707 10706 10707 10709 10713 10713 10713
10634 10627 10618 10610 10605 10598 10593 10589 10581 10574 10565 10555 10546 10538 10531 10525 10521 10522 10525 10528 10535 10544 10559 10574 10585 10597 10606 10618 10631 10639 10645 10653 10662 10672 10674 10681 10695 10699 10699 10697 10696 10699 10700 10698 10697
10631 10624 10616 10606 10600 10594 10590 10585 10579 10573 10564 10559 10550 10541 10535 10530 10525 10525 10527 10530 10536 10543 10555 10561 10569 10583 10595 10608 10621 10631 10636 10642 10652 10661 10668 10677 10683 10689 10690 10687 10686 10688 10687 10684 10682
10628 10620 10613 10606 10597 10591 10586 10583 10578 10573 10564 10562 10553 10547 10540 10535 10531 10529 10530 10532 10538 10544 10553 10561 10568 10581 10593 10602 10613 10621 10625 10634 10641 10651 10657 10666 10673 10678 10678 10677 10676 10676 10673 10671 10669
10624 10616 10610 10603 10596 10590 10583 10581 10578 10573 10566 10562 10557 10550 10545 10541 10538 10535 10534 10536 10539 10544 10551 10560 10568 10580 10591 10598 10605 10614 10622 10627 10633 10642 10649 10657 10663 10664 10666 10667 10663 10660 10659 10659 10656
10620 10614 10603 10599 10593 10587 10580 10579 10576 10573 10568 10562 10559 10555 10549 10546 10544 10541 10539 10541 10544 10547 10552 10558 10567 10576 10585 10593 10600 10607 10615 10621 10627 10631 10638 10646 10654 10653 10654 10653 10650 10648 10647 10645 10640
10616 10610 10601 10595 10590 10584 10579 10577 10575 10572 10568 10564 10560 10557 10553 10551 10548 10548 10546 10545 10547 10550 10553 10558 10565 10572 10579 10586 10592 10598 10606 10612 10618 10624 10630 10637 10642 10641 10641 10640 10639 10638 10634 10630 10624
10613 10605 10597 10591 10586 10582 10577 10573 10574 10570 10567 10563 10560 10558 10556 10552 10551 10551 10551 10552 10552 10556 10556 10559 10563 10569 10575 10582 10588 10595 10601 10607 10611 10617 10622 10627 10628 10629 10629 10629 10626 10622 10620 10616 10612
10606 10600 10593 10587 10582 10578 10574 10571 10568 10569 10564 10561 10559 10557 10557 10555 10553 10551 10552 10553 10556 10557 10559 10562 10565 10570 10574 10578 10583 10588 10593 10597 10603 10608 10611 10615 10617 10618 10619 10617 10612 10609 10607 10604 10598
10600 10595 10588 10582 10577 10574 10570 10567 10564 10565 10561 10560 10557 10554 10555 10555 10554 10553 10554 10555 10556 10559 10561 10564 10566 10569 10573 10577 10580 10584 10588 10591 10594 10598 10602 10604 10605 10607 10608 10606 10603 10601 10597 10592 10586
10592 10589 10582 10576 10571 10567 10565 10561 10559 10559 10559 10558 10554 10552 10552 10553 10553 10553 10554 10554 10556 10558 10561 10563 10565 10568 10571 10575 10578 10581 10584 10588 10591 10593 10596 10598 10599 10599 10597 10596 10593 10590 10585 10578 10570